Weather History for KDSM - November, 2013

Change the Weather History Date:

Friday, November 22, 2013

  Actual Average Record
Temperature  
Mean Temperature 22 °F 36 °F  
Max Temperature 27 °F 44 °F 69 °F (1966)
Min Temperature 17 °F 27 °F 0 °F (1937)
Degree Days  
Heating Degree Days 43 29  
Month to date heating degree days 499 520  
Since 1 July heating degree days 889 1004  
Cooling Degree Days 0 0  
Month to date cooling degree days 0 0  
Year to date cooling degree days 1353 1066  
Moisture  
Dew Point 16 °F    
Average Humidity 72    
Maximum Humidity 84    
Minimum Humidity 59    
Precipitation  
Precipitation 0.02 in 0.06 in 1.12 in (1884)
Month to date precipitation 1.35 1.68  
Year to date precipitation 31.17 34.09  
Snow  
Snow 0.40 in 0.10 in 3.60 in (1991)
Month to date snowfall 1.4 1.2  
Since 1 July snowfall 1.4 1.6  
Since 1 September snowfall 1.4 1.6  
Snow Depth 1.00 in    
Sea Level Pressure  
Sea Level Pressure 30.58 in    
Wind  
Wind Speed 9 mph (NW)    
Max Wind Speed 20 mph    
Max Gust Speed 28 mph    
Visibility 8 miles    
Events Snow    
T = Trace of Precipitation, MM = Missing Value Source: NWS Daily Summary

Daily Weather History Graph

Daily Weather History Graph

Search for Another Location

Airport or City:

Trip Planner

Search our weather history database for the weather conditions in past years. The results will help you decide how hot, cold, wet, or windy it might be!

Date:

Astronomy

Nov. 22, 2013 Rise Set
Actual Time 7:12 AM CST 4:49 PM CST
Civil Twilight 6:41 AM CST 5:19 PM CST
Nautical Twilight 6:07 AM CST 5:53 PM CST
Astronomical Twilight 5:34 AM CST 6:26 PM CST
Moon 9:23 PM CST (11/22) 10:55 AM CST (11/22)
Length of Visible Light 10h 37m
Length of Day
9h 37m
Waning Gibbous, 78% of the Moon is Illuminated
Nov 22
Waning Gibbous
Nov 25
Last Quarter
Dec 2
New
Dec 9
First Quarter
Dec 17
Full

Hourly Weather History & Observations

Time (CST) Temp. Windchill Dew Point Humidity Pressure Visibility Wind Dir Wind Speed Gust Speed Precip Events Conditions
12:10 AM 26.1 °F 14.5 °F 21.9 °F 84% 30.45 in 1.5 mi NNW 13.8 mph - 0.00 in Snow Light Snow
12:13 AM 26.1 °F 15.0 °F 21.9 °F 84% 30.45 in 1.2 mi NNW 12.7 mph - 0.00 in Snow Light Snow
12:36 AM 26.1 °F 14.5 °F 21.9 °F 84% 30.46 in 1.5 mi NNW 13.8 mph - 0.00 in Snow Light Snow
12:52 AM 26.6 °F 16.2 °F 21.2 °F 80% 30.46 in 2.0 mi NNW 11.5 mph 21.9 mph 0.01 in Snow Light Snow
12:54 AM 26.1 °F 14.5 °F 21.0 °F 81% 30.49 in 2.0 mi North 13.8 mph 21.9 mph 0.01 in Snow Light Snow
1:24 AM 25.0 °F 12.6 °F 21.0 °F 85% 30.46 in 2.0 mi NNW 15.0 mph 26.5 mph 0.01 in Snow Light Snow
1:54 AM 25.0 °F 11.7 °F 19.9 °F 81% 30.50 in 2.0 mi NNW 17.3 mph 24.2 mph 0.01 in Snow Light Snow
2:13 AM 24.1 °F 10.6 °F 19.0 °F 81% 30.48 in 2.0 mi North 17.3 mph - 0.00 in Snow Light Snow
2:54 AM 24.1 °F 13.1 °F 18.0 °F 77% 30.54 in 2.0 mi NNW 11.5 mph 21.9 mph 0.00 in Snow Light Snow
3:02 AM 24.1 °F 10.1 °F 18.0 °F 77% 30.50 in 9.0 mi NNW 18.4 mph 23.0 mph 0.00 in Snow Light Snow
3:51 AM 24.8 °F 14.0 °F 17.6 °F 74% 30.50 in 10.0 mi NNW 11.5 mph 25.3 mph 0.00 in   Overcast
3:54 AM 24.1 °F 12.5 °F 18.0 °F 77% 30.54 in 10.0 mi North 12.7 mph - 0.00 in   Overcast
4:21 AM 24.1 °F 13.1 °F 18.0 °F 77% 30.51 in 10.0 mi North 11.5 mph - N/A   Overcast
4:32 AM 24.1 °F 13.1 °F 18.0 °F 77% 30.51 in 10.0 mi North 11.5 mph - N/A   Overcast
4:54 AM 24.1 °F 12.5 °F 18.0 °F 77% 30.57 in 10.0 mi NNW 12.7 mph - N/A   Overcast
5:38 AM 21.9 °F 10.4 °F 17.1 °F 82% 30.54 in 10.0 mi NNW 11.5 mph - N/A   Mostly Cloudy
5:54 AM 21.0 °F 9.9 °F 16.0 °F 81% 30.58 in 9.0 mi NNW 10.4 mph - N/A   Partly Cloudy
6:54 AM 19.0 °F 7.5 °F 14.0 °F 81% 30.61 in 10.0 mi NNW 10.4 mph - N/A   Scattered Clouds
7:54 AM 19.0 °F 10.0 °F 12.9 °F 77% 30.62 in 10.0 mi NNW 6.9 mph - N/A   Partly Cloudy
8:54 AM 21.0 °F 11.4 °F 12.9 °F 71% 30.61 in 10.0 mi NNW 8.1 mph - N/A   Mostly Cloudy
9:54 AM 24.1 °F 14.4 °F 16.0 °F 71% 30.63 in 10.0 mi NNW 9.2 mph - N/A   Overcast
10:54 AM 21.0 °F 8.1 °F 14.0 °F 74% 30.69 in 10.0 mi NW 13.8 mph - N/A   Mostly Cloudy
11:54 AM 25.0 °F 14.8 °F 16.0 °F 69% 30.66 in 10.0 mi NW 10.4 mph - N/A   Overcast
12:54 PM 24.1 °F 12.0 °F 16.0 °F 71% 30.67 in 10.0 mi NW 13.8 mph - N/A   Overcast
1:54 PM 25.0 °F 14.8 °F 15.1 °F 66% 30.66 in 10.0 mi NNW 10.4 mph - N/A   Overcast
2:54 PM 25.0 °F 14.8 °F 15.1 °F 66% 30.65 in 10.0 mi NW 10.4 mph - N/A   Overcast
3:54 PM 25.0 °F 16.3 °F 12.0 °F 58% 30.64 in 10.0 mi NW 8.1 mph - N/A   Mostly Cloudy
4:54 PM 23.0 °F 17.0 °F 10.9 °F 60% 30.63 in 10.0 mi WNW 4.6 mph - N/A   Mostly Cloudy
5:54 PM 21.0 °F 14.6 °F 12.0 °F 68% 30.62 in 10.0 mi WSW 4.6 mph - N/A   Scattered Clouds
6:54 PM 19.9 °F 13.4 °F 10.9 °F 68% 30.62 in 10.0 mi West 4.6 mph - N/A   Clear
7:54 PM 18.0 °F 9.8 °F 10.0 °F 71% 30.62 in 10.0 mi WSW 5.8 mph - N/A   Clear
8:54 PM 18.0 °F 9.8 °F 10.0 °F 71% 30.62 in 10.0 mi WSW 5.8 mph - N/A   Clear
9:54 PM 18.0 °F 9.8 °F 10.0 °F 71% 30.62 in 10.0 mi WNW 5.8 mph - N/A   Clear
10:54 PM 18.0 °F 11.1 °F 9.0 °F 68% 30.61 in 10.0 mi WNW 4.6 mph - N/A   Scattered Clouds
11:54 PM 19.0 °F 10.0 °F 9.0 °F 65% 30.63 in 10.0 mi NW 6.9 mph - N/A   Partly Cloudy